#datetime,building,power
2024-01-30T00:00:00,pth,3.60
2024-01-30T00:01:00,pth,2.40
2024-01-30T00:03:00,pth,3.60
2024-01-30T00:04:00,pth,2.40
2024-01-30T00:05:00,pth,2.40
2024-01-30T00:07:00,pth,4.80
2024-01-30T00:08:00,pth,3.60
2024-01-30T00:09:00,pth,2.40
2024-01-30T00:10:00,pth,2.40
2024-01-30T00:12:00,pth,6.00
2024-01-30T00:14:00,pth,4.80
2024-01-30T00:15:00,pth,2.40
2024-01-30T00:16:00,pth,2.40
2024-01-30T00:18:00,pth,3.60
2024-01-30T00:19:00,pth,2.40
2024-01-30T00:21:00,pth,4.80
2024-01-30T00:22:00,pth,2.40
2024-01-30T00:24:00,pth,3.60
2024-01-30T00:25:00,pth,2.40
2024-01-30T00:27:00,pth,4.80
2024-01-30T00:29:00,pth,3.60
2024-01-30T00:31:00,pth,4.80
2024-01-30T00:32:00,pth,2.40
2024-01-30T00:34:00,pth,4.80
2024-01-30T00:35:00,pth,2.40
2024-01-30T00:37:00,pth,4.80
2024-01-30T00:38:00,pth,2.40
2024-01-30T00:40:00,pth,3.60
2024-01-30T00:41:00,pth,2.40
2024-01-30T00:42:00,pth,2.40
2024-01-30T00:44:00,pth,3.60
2024-01-30T00:45:00,pth,1.20
2024-01-30T00:46:00,pth,2.40
2024-01-30T00:47:00,pth,2.40
2024-01-30T00:49:00,pth,3.60
2024-01-30T00:50:00,pth,2.40
2024-01-30T00:51:00,pth,1.20
2024-01-30T00:53:00,pth,4.80
2024-01-30T00:55:00,pth,3.60
2024-01-30T00:57:00,pth,3.60
2024-01-30T00:59:00,pth,4.80
2024-01-30T01:01:00,pth,3.60
2024-01-30T01:02:00,pth,2.40
2024-01-30T01:04:00,pth,3.60
2024-01-30T01:06:00,pth,4.80
2024-01-30T01:07:00,pth,2.40
2024-01-30T01:08:00,pth,2.40
2024-01-30T01:10:00,pth,4.80
2024-01-30T01:12:00,pth,3.60
2024-01-30T01:13:00,pth,2.40
2024-01-30T01:15:00,pth,6.00
2024-01-30T01:17:00,pth,4.80
2024-01-30T01:19:00,pth,4.80
2024-01-30T01:20:00,pth,2.40
2024-01-30T01:22:00,pth,3.60
2024-01-30T01:23:00,pth,2.40
2024-01-30T01:25:00,pth,4.80
2024-01-30T01:26:00,pth,1.20
2024-01-30T01:28:00,pth,4.80
2024-01-30T01:29:00,pth,2.40
2024-01-30T01:30:00,pth,1.20
2024-01-30T01:32:00,pth,4.80
2024-01-30T01:33:00,pth,2.40
2024-01-30T01:35:00,pth,3.60
2024-01-30T01:37:00,pth,4.80
2024-01-30T01:38:00,pth,2.40
2024-01-30T01:40:00,pth,3.60
2024-01-30T01:42:00,pth,4.80
2024-01-30T01:44:00,pth,3.60
2024-01-30T01:46:00,pth,4.80
2024-01-30T01:48:00,pth,3.60
2024-01-30T01:50:00,pth,4.80
2024-01-30T01:51:00,pth,1.20
2024-01-30T01:53:00,pth,4.80
2024-01-30T01:54:00,pth,2.40
2024-01-30T01:56:00,pth,4.80
2024-01-30T01:58:00,pth,3.60
2024-01-30T01:59:00,pth,2.40
2024-01-30T02:01:00,pth,4.80
2024-01-30T02:02:00,pth,2.40
2024-01-30T02:04:00,pth,3.60
2024-01-30T02:06:00,pth,3.60
2024-01-30T02:07:00,pth,2.40
2024-01-30T02:08:00,pth,2.40
2024-01-30T02:10:00,pth,3.60
2024-01-30T02:11:00,pth,2.40
2024-01-30T02:13:00,pth,4.80
2024-01-30T02:14:00,pth,1.20
2024-01-30T02:15:00,pth,2.40
2024-01-30T02:17:00,pth,4.80
2024-01-30T02:19:00,pth,3.60
2024-01-30T02:21:00,pth,4.80
2024-01-30T02:22:00,pth,1.20
2024-01-30T02:24:00,pth,4.80
2024-01-30T02:26:00,pth,3.60
2024-01-30T02:28:00,pth,4.80
2024-01-30T02:30:00,pth,4.80
2024-01-30T02:31:00,pth,2.40
2024-01-30T02:32:00,pth,2.40
2024-01-30T02:34:00,pth,4.80
2024-01-30T02:35:00,pth,2.40
2024-01-30T02:37:00,pth,3.60
2024-01-30T02:38:00,pth,2.40
2024-01-30T02:40:00,pth,4.80
2024-01-30T02:41:00,pth,2.40
2024-01-30T02:43:00,pth,4.80
2024-01-30T02:45:00,pth,4.80
2024-01-30T02:47:00,pth,4.80
2024-01-30T02:48:00,pth,2.40
2024-01-30T02:49:00,pth,1.20
2024-01-30T02:51:00,pth,4.80
2024-01-30T02:53:00,pth,4.80
2024-01-30T02:55:00,pth,3.60
2024-01-30T02:57:00,pth,6.00
2024-01-30T02:58:00,pth,2.40
2024-01-30T02:59:00,pth,1.20
2024-01-30T03:01:00,pth,4.80
2024-01-30T03:02:00,pth,2.40
2024-01-30T03:04:00,pth,4.80
2024-01-30T03:05:00,pth,2.40
2024-01-30T03:06:00,pth,1.20
2024-01-30T03:07:00,pth,2.40
2024-01-30T03:09:00,pth,4.80
2024-01-30T03:11:00,pth,4.80
2024-01-30T03:12:00,pth,2.40
2024-01-30T03:14:00,pth,3.60
2024-01-30T03:16:00,pth,4.80
2024-01-30T03:18:00,pth,4.80
2024-01-30T03:20:00,pth,4.80
2024-01-30T03:21:00,pth,1.20
2024-01-30T03:22:00,pth,2.40
2024-01-30T03:24:00,pth,4.80
2024-01-30T03:25:00,pth,2.40
2024-01-30T03:27:00,pth,3.60
2024-01-30T03:29:00,pth,4.80
2024-01-30T03:30:00,pth,2.40
2024-01-30T03:31:00,pth,1.20
2024-01-30T03:33:00,pth,4.80
2024-01-30T03:35:00,pth,3.60
2024-01-30T03:36:00,pth,2.40
2024-01-30T03:38:00,pth,3.60
2024-01-30T03:40:00,pth,4.80
2024-01-30T03:42:00,pth,3.60
2024-01-30T03:43:00,pth,1.20
2024-01-30T03:45:00,pth,4.80
2024-01-30T03:47:00,pth,3.60
2024-01-30T03:48:00,pth,2.40
2024-01-30T03:50:00,pth,3.60
2024-01-30T03:51:00,pth,2.40
2024-01-30T03:53:00,pth,3.60
2024-01-30T03:55:00,pth,4.80
2024-01-30T03:57:00,pth,3.60
2024-01-30T03:59:00,pth,4.80
2024-01-30T04:01:00,pth,3.60
2024-01-30T04:02:00,pth,2.40
2024-01-30T04:03:00,pth,2.40
2024-01-30T04:05:00,pth,3.60
2024-01-30T04:07:00,pth,4.80
2024-01-30T04:09:00,pth,3.60
2024-01-30T04:11:00,pth,4.80
2024-01-30T04:13:00,pth,4.80
2024-01-30T04:15:00,pth,3.60
2024-01-30T04:17:00,pth,3.60
2024-01-30T04:18:00,pth,2.40
2024-01-30T04:20:00,pth,3.60
2024-01-30T04:21:00,pth,2.40
2024-01-30T04:23:00,pth,3.60
2024-01-30T04:25:00,pth,4.80
2024-01-30T04:26:00,pth,1.20
2024-01-30T04:27:00,pth,2.40
2024-01-30T04:28:00,pth,1.20
2024-01-30T04:30:00,pth,4.80
2024-01-30T04:32:00,pth,3.60
2024-01-30T04:34:00,pth,3.60
2024-01-30T04:35:00,pth,2.40
2024-01-30T04:36:00,pth,2.40
2024-01-30T04:38:00,pth,3.60
2024-01-30T04:40:00,pth,4.80
2024-01-30T04:41:00,pth,1.20
2024-01-30T04:43:00,pth,4.80
2024-01-30T04:45:00,pth,3.60
2024-01-30T04:46:00,pth,2.40
2024-01-30T04:48:00,pth,3.60
2024-01-30T04:49:00,pth,2.40
2024-01-30T04:51:00,pth,3.60
2024-01-30T04:53:00,pth,3.60
2024-01-30T04:55:00,pth,4.80
2024-01-30T04:56:00,pth,2.40
2024-01-30T04:58:00,pth,3.60
2024-01-30T05:00:00,pth,3.60
2024-01-30T05:02:00,pth,4.80
2024-01-30T05:04:00,pth,3.60
2024-01-30T05:06:00,pth,4.80
2024-01-30T05:08:00,pth,3.60
2024-01-30T05:10:00,pth,4.80
2024-01-30T05:12:00,pth,3.60
2024-01-30T05:14:00,pth,4.80
2024-01-30T05:15:00,pth,2.40
2024-01-30T05:17:00,pth,3.60
2024-01-30T05:18:00,pth,2.40
2024-01-30T05:20:00,pth,4.80
2024-01-30T05:21:00,pth,2.40
2024-01-30T05:22:00,pth,2.40
2024-01-30T05:24:00,pth,4.80
2024-01-30T05:26:00,pth,3.60
2024-01-30T05:28:00,pth,4.80
2024-01-30T05:30:00,pth,3.60
2024-01-30T05:32:00,pth,4.80
2024-01-30T05:34:00,pth,4.80
2024-01-30T05:36:00,pth,3.60
2024-01-30T05:37:00,pth,2.40
2024-01-30T05:39:00,pth,4.80
2024-01-30T05:41:00,pth,3.60
2024-01-30T05:42:00,pth,2.40
2024-01-30T05:44:00,pth,3.60
2024-01-30T05:45:00,pth,2.40
2024-01-30T05:47:00,pth,4.80
2024-01-30T05:48:00,pth,2.40
2024-01-30T05:50:00,pth,3.60
2024-01-30T05:51:00,pth,2.40
2024-01-30T05:52:00,pth,2.40
2024-01-30T05:53:00,pth,1.20
2024-01-30T05:55:00,pth,4.80
2024-01-30T05:56:00,pth,2.40
2024-01-30T05:57:00,pth,1.20
2024-01-30T05:59:00,pth,4.80
2024-01-30T06:00:00,pth,2.40
2024-01-30T06:01:00,pth,1.20
2024-01-30T06:03:00,pth,4.80
2024-01-30T06:05:00,pth,3.60
2024-01-30T06:07:00,pth,4.80
2024-01-30T06:08:00,pth,1.20
2024-01-30T06:09:00,pth,2.40
2024-01-30T06:11:00,pth,4.80
2024-01-30T06:13:00,pth,4.80
2024-01-30T06:15:00,pth,3.60
2024-01-30T06:17:00,pth,4.80
2024-01-30T06:19:00,pth,3.60
2024-01-30T06:20:00,pth,2.40
2024-01-30T06:22:00,pth,4.80
2024-01-30T06:23:00,pth,2.40
2024-01-30T06:25:00,pth,3.60
2024-01-30T06:26:00,pth,2.40
2024-01-30T06:28:00,pth,3.60
2024-01-30T06:29:00,pth,2.40
2024-01-30T06:31:00,pth,3.60
2024-01-30T06:32:00,pth,2.40
2024-01-30T06:33:00,pth,2.40
2024-01-30T06:35:00,pth,4.80
2024-01-30T06:37:00,pth,3.60
2024-01-30T06:39:00,pth,4.80
2024-01-30T06:40:00,pth,1.20
2024-01-30T06:42:00,pth,4.80
2024-01-30T06:44:00,pth,3.60
2024-01-30T06:46:00,pth,4.80
2024-01-30T06:47:00,pth,2.40
2024-01-30T06:48:00,pth,1.19
2024-01-30T06:49:00,pth,2.40
2024-01-30T06:51:00,pth,4.80
2024-01-30T06:53:00,pth,3.60
2024-01-30T06:54:00,pth,2.40
2024-01-30T06:55:00,pth,2.40
2024-01-30T06:56:00,pth,1.20
2024-01-30T06:58:00,pth,4.80
2024-01-30T06:59:00,pth,2.40
2024-01-30T07:01:00,pth,3.60
2024-01-30T07:03:00,pth,4.80
2024-01-30T07:04:00,pth,2.40
2024-01-30T07:06:00,pth,3.60
2024-01-30T07:07:00,pth,2.40
2024-01-30T07:09:00,pth,4.80
2024-01-30T07:11:00,pth,3.60
2024-01-30T07:13:00,pth,4.80
2024-01-30T07:15:00,pth,3.60
2024-01-30T07:17:00,pth,4.80
2024-01-30T07:19:00,pth,3.60
2024-01-30T07:21:00,pth,4.80
2024-01-30T07:22:00,pth,2.40
2024-01-30T07:24:00,pth,3.60
2024-01-30T07:25:00,pth,2.40
2024-01-30T07:27:00,pth,4.80
2024-01-30T07:29:00,pth,4.80
2024-01-30T07:30:00,pth,2.40
2024-01-30T07:31:00,pth,2.40
2024-01-30T07:32:00,pth,1.20
2024-01-30T07:34:00,pth,3.60
2024-01-30T07:36:00,pth,3.60
2024-01-30T07:37:00,pth,2.40
2024-01-30T07:39:00,pth,3.60
2024-01-30T07:40:00,pth,2.40
2024-01-30T07:41:00,pth,1.19
2024-01-30T07:43:00,pth,4.80
2024-01-30T07:44:00,pth,1.20
2024-01-30T07:46:00,pth,4.80
2024-01-30T07:47:00,pth,1.20
2024-01-30T07:49:00,pth,3.60
2024-01-30T07:50:00,pth,2.40
2024-01-30T07:52:00,pth,3.60
2024-01-30T07:53:00,pth,2.40
2024-01-30T07:55:00,pth,3.60
2024-01-30T07:57:00,pth,4.80
2024-01-30T07:59:00,pth,3.60
2024-01-30T08:00:00,pth,2.40
2024-01-30T08:01:00,pth,3.60
2024-01-30T08:03:00,pth,4.80
2024-01-30T08:05:00,pth,3.60
2024-01-30T08:06:00,pth,2.40
2024-01-30T08:08:00,pth,3.60
2024-01-30T08:10:00,pth,3.60
2024-01-30T08:11:00,pth,1.20
2024-01-30T08:12:00,pth,2.40
2024-01-30T08:14:00,pth,3.60
2024-01-30T08:15:00,pth,2.40
2024-01-30T08:17:00,pth,3.60
2024-01-30T08:19:00,pth,3.60
2024-01-30T08:21:00,pth,3.60
2024-01-30T08:22:00,pth,2.40
2024-01-30T08:23:00,pth,1.20
2024-01-30T08:25:00,pth,3.60
2024-01-30T08:26:00,pth,2.40
2024-01-30T08:28:00,pth,3.60
2024-01-30T08:30:00,pth,3.60
2024-01-30T08:32:00,pth,3.60
2024-01-30T08:33:00,pth,2.40
2024-01-30T08:35:00,pth,3.60
2024-01-30T08:36:00,pth,2.40
2024-01-30T08:37:00,pth,1.20
2024-01-30T08:38:00,pth,2.40
2024-01-30T08:39:00,pth,1.20
2024-01-30T08:41:00,pth,3.60
2024-01-30T08:43:00,pth,3.60
2024-01-30T08:45:00,pth,3.60
2024-01-30T08:47:00,pth,3.60
2024-01-30T08:49:00,pth,3.60
2024-01-30T08:50:00,pth,2.40
2024-01-30T08:52:00,pth,3.60
2024-01-30T08:54:00,pth,3.60
2024-01-30T08:56:00,pth,3.60
2024-01-30T08:58:00,pth,3.60
2024-01-30T09:00:00,pth,3.60
2024-01-30T09:01:00,pth,2.40
2024-01-30T09:03:00,pth,3.60
2024-01-30T09:05:00,pth,3.60
2024-01-30T09:06:00,pth,2.40
2024-01-30T09:07:00,pth,1.19
2024-01-30T09:09:00,pth,3.60
2024-01-30T09:11:00,pth,4.80
2024-01-30T09:12:00,pth,1.20
2024-01-30T09:13:00,pth,2.40
2024-01-30T09:15:00,pth,3.60
2024-01-30T09:16:00,pth,2.40
2024-01-30T09:17:00,pth,1.20
2024-01-30T09:19:00,pth,3.60
2024-01-30T09:20:00,pth,2.40
2024-01-30T09:22:00,pth,3.60
2024-01-30T09:23:00,pth,2.40
2024-01-30T09:25:00,pth,3.60
2024-01-30T09:27:00,pth,4.80
2024-01-30T09:28:00,pth,1.20
2024-01-30T09:29:00,pth,2.40
2024-01-30T09:31:00,pth,3.60
2024-01-30T09:32:00,pth,1.20
2024-01-30T09:34:00,pth,3.60
2024-01-30T09:36:00,pth,4.80
2024-01-30T09:38:00,pth,3.60
2024-01-30T09:39:00,pth,1.20
2024-01-30T09:41:00,pth,4.80
2024-01-30T09:42:00,pth,1.19
2024-01-30T09:44:00,pth,3.60
2024-01-30T09:45:00,pth,2.40
2024-01-30T09:47:00,pth,3.60
2024-01-30T09:48:00,pth,1.20
2024-01-30T09:50:00,pth,3.60
2024-01-30T09:51:00,pth,2.40
2024-01-30T09:53:00,pth,3.60
2024-01-30T09:54:00,pth,2.40
2024-01-30T09:56:00,pth,3.60
2024-01-30T09:58:00,pth,9.60
2024-01-30T09:59:00,pth,7.20
2024-01-30T10:01:00,pth,15.60
2024-01-30T10:02:00,pth,7.20
2024-01-30T10:03:00,pth,7.20
2024-01-30T10:05:00,pth,14.40
2024-01-30T10:07:00,pth,16.80
2024-01-30T10:08:00,pth,7.20
2024-01-30T10:10:00,pth,14.40
2024-01-30T10:11:00,pth,8.40
2024-01-30T10:12:00,pth,7.20
2024-01-30T10:14:00,pth,14.40
2024-01-30T10:16:00,pth,15.60
2024-01-30T10:18:00,pth,14.40
2024-01-30T10:19:00,pth,7.20
2024-01-30T10:21:00,pth,14.40
2024-01-30T10:23:00,pth,14.40
2024-01-30T10:24:00,pth,7.20
2024-01-30T10:26:00,pth,15.60
2024-01-30T10:27:00,pth,8.40
2024-01-30T10:29:00,pth,14.40
2024-01-30T10:30:00,pth,7.20
2024-01-30T10:32:00,pth,14.40
2024-01-30T10:34:00,pth,13.20
2024-01-30T10:35:00,pth,3.60
2024-01-30T10:37:00,pth,14.40
2024-01-30T10:39:00,pth,14.40
2024-01-30T10:41:00,pth,8.40
2024-01-30T10:43:00,pth,14.40
2024-01-30T10:45:00,pth,10.80
2024-01-30T10:46:00,pth,4.80
2024-01-30T10:48:00,pth,14.40
2024-01-30T10:50:00,pth,13.20
2024-01-30T10:52:00,pth,10.80
2024-01-30T10:54:00,pth,7.20
2024-01-30T10:55:00,pth,10.80
2024-01-30T10:56:00,pth,2.40
2024-01-30T10:58:00,pth,3.60
2024-01-30T10:59:00,pth,2.40
2024-01-30T11:01:00,pth,3.60
2024-01-30T11:02:00,pth,1.19
2024-01-30T11:04:00,pth,3.60
2024-01-30T11:05:00,pth,2.40
2024-01-30T11:07:00,pth,3.60
2024-01-30T11:08:00,pth,1.20
2024-01-30T11:09:00,pth,2.40
2024-01-30T11:10:00,pth,3.60
2024-01-30T11:12:00,pth,3.60
2024-01-30T11:13:00,pth,2.40
2024-01-30T11:15:00,pth,3.60
2024-01-30T11:17:00,pth,3.60
2024-01-30T11:19:00,pth,3.60
2024-01-30T11:20:00,pth,1.20
2024-01-30T11:21:00,pth,2.40
2024-01-30T11:23:00,pth,3.60
2024-01-30T11:25:00,pth,3.60
2024-01-30T11:26:00,pth,2.40
2024-01-30T11:28:00,pth,3.60
2024-01-30T11:29:00,pth,1.20
2024-01-30T11:30:00,pth,2.40
2024-01-30T11:32:00,pth,3.60
2024-01-30T11:33:00,pth,1.20
2024-01-30T11:35:00,pth,3.60
2024-01-30T11:37:00,pth,3.60
2024-01-30T11:38:00,pth,2.40
2024-01-30T11:40:00,pth,3.60
2024-01-30T11:41:00,pth,1.20
2024-01-30T11:43:00,pth,3.60
2024-01-30T11:45:00,pth,3.60
2024-01-30T11:47:00,pth,3.60
2024-01-30T11:49:00,pth,2.40
2024-01-30T11:51:00,pth,3.60
2024-01-30T11:53:00,pth,3.60
2024-01-30T11:55:00,pth,3.60
2024-01-30T11:56:00,pth,1.20
2024-01-30T11:57:00,pth,2.40
2024-01-30T11:59:00,pth,2.40
2024-01-30T12:00:00,pth,2.40
2024-01-30T12:02:00,pth,3.60
2024-01-30T12:03:00,pth,1.20
2024-01-30T12:05:00,pth,3.60
2024-01-30T12:07:00,pth,4.80
2024-01-30T12:09:00,pth,3.60
2024-01-30T12:10:00,pth,1.20
2024-01-30T12:12:00,pth,2.40
2024-01-30T12:13:00,pth,2.40
2024-01-30T12:14:00,pth,1.20
2024-01-30T12:16:00,pth,3.60
2024-01-30T12:18:00,pth,3.60
2024-01-30T12:19:00,pth,2.40
2024-01-30T12:21:00,pth,3.60
2024-01-30T12:22:00,pth,1.20
2024-01-30T12:24:00,pth,3.60
2024-01-30T12:26:00,pth,3.60
2024-01-30T12:28:00,pth,3.60
2024-01-30T12:30:00,pth,2.40
2024-01-30T12:32:00,pth,3.60
2024-01-30T12:33:00,pth,2.40
2024-01-30T12:35:00,pth,3.60
2024-01-30T12:37:00,pth,3.60
2024-01-30T12:39:00,pth,3.60
2024-01-30T12:41:00,pth,3.60
2024-01-30T12:42:00,pth,2.40
2024-01-30T12:43:00,pth,2.40
2024-01-30T12:45:00,pth,3.60
2024-01-30T12:47:00,pth,15.60
2024-01-30T12:49:00,pth,15.59
2024-01-30T12:51:00,pth,15.60
2024-01-30T12:53:00,pth,15.60
2024-01-30T12:54:00,pth,8.40
2024-01-30T12:55:00,pth,8.40
2024-01-30T12:57:00,pth,15.60
2024-01-30T12:58:00,pth,9.60
2024-01-30T13:00:00,pth,19.20
2024-01-30T13:02:00,pth,16.80
2024-01-30T13:04:00,pth,19.20
2024-01-30T13:05:00,pth,9.60
2024-01-30T13:07:00,pth,19.20
2024-01-30T13:09:00,pth,18.00
2024-01-30T13:11:00,pth,18.00
2024-01-30T13:12:00,pth,7.20
2024-01-30T13:14:00,pth,16.79
2024-01-30T13:16:00,pth,15.60
2024-01-30T13:17:00,pth,8.40
2024-01-30T13:19:00,pth,14.40
2024-01-30T13:20:00,pth,8.40
2024-01-30T13:22:00,pth,14.40
2024-01-30T13:23:00,pth,8.40
2024-01-30T13:25:00,pth,14.40
2024-01-30T13:27:00,pth,16.80
2024-01-30T13:29:00,pth,14.40
2024-01-30T13:31:00,pth,15.60
2024-01-30T13:33:00,pth,15.60
2024-01-30T13:34:00,pth,7.20
2024-01-30T13:36:00,pth,15.60
2024-01-30T13:37:00,pth,7.20
2024-01-30T13:39:00,pth,14.40
2024-01-30T13:41:00,pth,14.40
2024-01-30T13:42:00,pth,7.20
2024-01-30T13:43:00,pth,8.40
2024-01-30T13:44:00,pth,7.20
2024-01-30T13:46:00,pth,3.60
2024-01-30T13:48:00,pth,3.60
2024-01-30T13:50:00,pth,3.60
2024-01-30T13:51:00,pth,1.19
2024-01-30T13:52:00,pth,2.40
2024-01-30T13:54:00,pth,15.60
2024-01-30T13:56:00,pth,15.60
2024-01-30T13:58:00,pth,14.40
2024-01-30T14:00:00,pth,15.60
2024-01-30T14:01:00,pth,7.20
2024-01-30T14:03:00,pth,15.60
2024-01-30T14:04:00,pth,7.20
2024-01-30T14:05:00,pth,7.20
2024-01-30T14:07:00,pth,15.60
2024-01-30T14:08:00,pth,7.20
2024-01-30T14:10:00,pth,15.60
2024-01-30T14:11:00,pth,8.40
2024-01-30T14:12:00,pth,8.40
2024-01-30T14:14:00,pth,15.60
2024-01-30T14:15:00,pth,7.20
2024-01-30T14:16:00,pth,7.20
2024-01-30T14:17:00,pth,8.40
2024-01-30T14:19:00,pth,14.40
2024-01-30T14:21:00,pth,15.60
2024-01-30T14:23:00,pth,15.59
2024-01-30T14:24:00,pth,7.21
2024-01-30T14:26:00,pth,15.59
2024-01-30T14:28:00,pth,15.60
2024-01-30T14:29:00,pth,7.20
2024-01-30T14:30:00,pth,7.20
2024-01-30T14:31:00,pth,8.40
2024-01-30T14:32:00,pth,7.20
2024-01-30T14:34:00,pth,15.60
2024-01-30T14:36:00,pth,14.40
2024-01-30T14:38:00,pth,15.60
2024-01-30T14:40:00,pth,14.40
2024-01-30T14:41:00,pth,7.20
2024-01-30T14:43:00,pth,15.60
2024-01-30T14:45:00,pth,15.60
2024-01-30T14:47:00,pth,14.40
2024-01-30T14:49:00,pth,15.60
2024-01-30T14:50:00,pth,8.40
2024-01-30T14:52:00,pth,8.40
2024-01-30T14:54:00,pth,4.80
2024-01-30T14:56:00,pth,8.40
2024-01-30T14:57:00,pth,7.20
2024-01-30T14:59:00,pth,15.60
2024-01-30T15:01:00,pth,14.40
2024-01-30T15:03:00,pth,15.60
2024-01-30T15:05:00,pth,15.60
2024-01-30T15:07:00,pth,15.60
2024-01-30T15:09:00,pth,14.40
2024-01-30T15:11:00,pth,13.20
2024-01-30T15:12:00,pth,7.20
2024-01-30T15:14:00,pth,15.60
2024-01-30T15:15:00,pth,4.80
2024-01-30T15:17:00,pth,14.40
2024-01-30T15:18:00,pth,3.60
2024-01-30T15:19:00,pth,8.40
2024-01-30T15:21:00,pth,10.80
2024-01-30T15:23:00,pth,10.80
2024-01-30T15:24:00,pth,7.20
2024-01-30T15:26:00,pth,10.80
2024-01-30T15:27:00,pth,7.20
2024-01-30T15:29:00,pth,10.80
2024-01-30T15:30:00,pth,4.80
2024-01-30T15:31:00,pth,6.00
2024-01-30T15:33:00,pth,10.80
2024-01-30T15:35:00,pth,10.80
2024-01-30T15:36:00,pth,7.20
2024-01-30T15:38:00,pth,10.80
2024-01-30T15:39:00,pth,6.00
2024-01-30T15:40:00,pth,4.80
2024-01-30T15:42:00,pth,9.60
2024-01-30T15:43:00,pth,8.40
2024-01-30T15:44:00,pth,2.40
2024-01-30T15:45:00,pth,7.20
2024-01-30T15:47:00,pth,9.59
2024-01-30T15:48:00,pth,7.20
2024-01-30T15:50:00,pth,10.80
2024-01-30T15:51:00,pth,2.40
2024-01-30T15:53:00,pth,12.00
2024-01-30T15:55:00,pth,4.80
2024-01-30T15:58:00,pth,7.20
2024-01-30T16:00:00,pth,9.60
2024-01-30T16:01:00,pth,7.20
2024-01-30T16:03:00,pth,15.60
2024-01-30T16:05:00,pth,15.60
2024-01-30T16:07:00,pth,14.40
2024-01-30T16:08:00,pth,4.80
2024-01-30T16:09:00,pth,8.40
2024-01-30T16:11:00,pth,15.60
2024-01-30T16:13:00,pth,8.40
2024-01-30T16:15:00,pth,15.60
2024-01-30T16:16:00,pth,4.80
2024-01-30T16:18:00,pth,10.80
2024-01-30T16:19:00,pth,8.40
2024-01-30T16:21:00,pth,9.60
2024-01-30T16:23:00,pth,13.20
2024-01-30T16:24:00,pth,7.20
2024-01-30T16:26:00,pth,8.40
2024-01-30T16:27:00,pth,7.20
2024-01-30T16:29:00,pth,15.60
2024-01-30T16:31:00,pth,8.40
2024-01-30T16:32:00,pth,7.20
2024-01-30T16:34:00,pth,12.00
2024-01-30T16:36:00,pth,10.80
2024-01-30T16:38:00,pth,14.40
2024-01-30T16:39:00,pth,2.40
2024-01-30T16:41:00,pth,13.21
2024-01-30T16:43:00,pth,10.80
2024-01-30T16:44:00,pth,4.80
2024-01-30T16:46:00,pth,14.40
2024-01-30T16:47:00,pth,6.00
2024-01-30T16:49:00,pth,8.40
2024-01-30T16:50:00,pth,8.40
2024-01-30T16:51:00,pth,7.20
2024-01-30T16:53:00,pth,7.20
2024-01-30T16:54:00,pth,8.40
2024-01-30T16:56:00,pth,10.80
2024-01-30T16:57:00,pth,3.60
2024-01-30T16:59:00,pth,10.80
2024-01-30T17:00:00,pth,2.40
2024-01-30T17:02:00,pth,4.80
2024-01-30T17:04:00,pth,6.00
2024-01-30T17:06:00,pth,4.80
2024-01-30T17:08:00,pth,3.60
2024-01-30T17:09:00,pth,2.40
2024-01-30T17:11:00,pth,4.80
2024-01-30T17:13:00,pth,3.60
2024-01-30T17:15:00,pth,7.20
2024-01-30T17:17:00,pth,6.00
2024-01-30T17:18:00,pth,3.60
2024-01-30T17:20:00,pth,4.80
2024-01-30T17:21:00,pth,2.40
2024-01-30T17:22:00,pth,2.40
2024-01-30T17:23:00,pth,2.40
2024-01-30T17:25:00,pth,4.80
2024-01-30T17:26:00,pth,2.40
2024-01-30T17:27:00,pth,2.40
2024-01-30T17:29:00,pth,3.60
2024-01-30T17:31:00,pth,4.80
2024-01-30T17:32:00,pth,2.40
2024-01-30T17:34:00,pth,4.80
2024-01-30T17:36:00,pth,3.60
2024-01-30T17:37:00,pth,2.40
2024-01-30T17:39:00,pth,4.80
2024-01-30T17:40:00,pth,2.40
2024-01-30T17:42:00,pth,4.80
2024-01-30T17:43:00,pth,2.40
2024-01-30T17:45:00,pth,4.80
2024-01-30T17:46:00,pth,2.40
2024-01-30T17:48:00,pth,4.80
2024-01-30T17:49:00,pth,2.40
2024-01-30T17:51:00,pth,4.80
2024-01-30T17:52:00,pth,3.60
2024-01-30T17:54:00,pth,4.80
2024-01-30T17:55:00,pth,3.60
2024-01-30T17:56:00,pth,2.40
2024-01-30T17:58:00,pth,4.80
2024-01-30T17:59:00,pth,3.60
2024-01-30T18:01:00,pth,4.80
2024-01-30T18:03:00,pth,6.00
2024-01-30T18:04:00,pth,2.40
2024-01-30T18:06:00,pth,4.80
2024-01-30T18:08:00,pth,3.60
2024-01-30T18:10:00,pth,6.01
2024-01-30T18:12:00,pth,4.80
2024-01-30T18:13:00,pth,2.40
2024-01-30T18:15:00,pth,4.80
2024-01-30T18:17:00,pth,7.20
2024-01-30T18:18:00,pth,7.20
2024-01-30T18:20:00,pth,15.60
2024-01-30T18:22:00,pth,15.60
2024-01-30T18:24:00,pth,16.80
2024-01-30T18:26:00,pth,15.60
2024-01-30T18:27:00,pth,8.40
2024-01-30T18:29:00,pth,15.59
2024-01-30T18:30:00,pth,8.40
2024-01-30T18:32:00,pth,16.80
2024-01-30T18:34:00,pth,15.60
2024-01-30T18:35:00,pth,8.40
2024-01-30T18:37:00,pth,15.60
2024-01-30T18:38:00,pth,7.20
2024-01-30T18:40:00,pth,15.60
2024-01-30T18:42:00,pth,14.40
2024-01-30T18:43:00,pth,8.40
2024-01-30T18:44:00,pth,8.40
2024-01-30T18:46:00,pth,15.60
2024-01-30T18:47:00,pth,8.39
2024-01-30T18:49:00,pth,16.80
2024-01-30T18:50:00,pth,7.20
2024-01-30T18:52:00,pth,16.80
2024-01-30T18:54:00,pth,15.60
2024-01-30T18:56:00,pth,15.60
2024-01-30T18:57:00,pth,10.80
2024-01-30T18:59:00,pth,22.80
2024-01-30T19:01:00,pth,20.41
2024-01-30T19:02:00,pth,10.80
2024-01-30T19:04:00,pth,21.60
2024-01-30T19:06:00,pth,20.41
2024-01-30T19:08:00,pth,18.00
2024-01-30T19:09:00,pth,8.40
2024-01-30T19:11:00,pth,16.80
2024-01-30T19:13:00,pth,15.60
2024-01-30T19:14:00,pth,8.40
2024-01-30T19:16:00,pth,9.59
2024-01-30T19:17:00,pth,2.40
2024-01-30T19:19:00,pth,6.00
2024-01-30T19:21:00,pth,4.80
2024-01-30T19:22:00,pth,3.60
2024-01-30T19:23:00,pth,2.40
2024-01-30T19:25:00,pth,4.80
2024-01-30T19:27:00,pth,6.00
2024-01-30T19:29:00,pth,4.80
2024-01-30T19:30:00,pth,3.60
2024-01-30T19:31:00,pth,2.40
2024-01-30T19:33:00,pth,4.80
2024-01-30T19:35:00,pth,6.00
2024-01-30T19:37:00,pth,4.80
2024-01-30T19:38:00,pth,3.60
2024-01-30T19:40:00,pth,4.80
2024-01-30T19:42:00,pth,4.80
2024-01-30T19:44:00,pth,6.00
2024-01-30T19:46:00,pth,4.80
2024-01-30T19:48:00,pth,4.80
2024-01-30T19:50:00,pth,4.80
2024-01-30T19:51:00,pth,2.40
2024-01-30T19:52:00,pth,3.60
2024-01-30T19:54:00,pth,4.80
2024-01-30T19:56:00,pth,4.80
2024-01-30T19:58:00,pth,4.80
2024-01-30T19:59:00,pth,3.60
2024-01-30T20:01:00,pth,4.80
2024-01-30T20:03:00,pth,4.80
2024-01-30T20:05:00,pth,4.80
2024-01-30T20:07:00,pth,4.80
2024-01-30T20:08:00,pth,3.60
2024-01-30T20:10:00,pth,14.40
2024-01-30T20:12:00,pth,16.80
2024-01-30T20:13:00,pth,8.40
2024-01-30T20:15:00,pth,15.60
2024-01-30T20:17:00,pth,16.79
2024-01-30T20:19:00,pth,15.60
2024-01-30T20:20:00,pth,8.40
2024-01-30T20:22:00,pth,16.80
2024-01-30T20:24:00,pth,15.60
2024-01-30T20:25:00,pth,7.20
2024-01-30T20:27:00,pth,16.80
2024-01-30T20:28:00,pth,7.20
2024-01-30T20:30:00,pth,14.40
2024-01-30T20:31:00,pth,3.60
2024-01-30T20:32:00,pth,8.40
2024-01-30T20:34:00,pth,15.60
2024-01-30T20:36:00,pth,12.00
2024-01-30T20:38:00,pth,15.60
2024-01-30T20:39:00,pth,2.40
2024-01-30T20:41:00,pth,14.40
2024-01-30T20:42:00,pth,7.20
2024-01-30T20:44:00,pth,12.00
2024-01-30T20:46:00,pth,13.20
2024-01-30T20:48:00,pth,13.20
2024-01-30T20:50:00,pth,10.80
2024-01-30T20:52:00,pth,14.40
2024-01-30T20:53:00,pth,7.20
2024-01-30T20:55:00,pth,9.60
2024-01-30T20:56:00,pth,8.39
2024-01-30T20:58:00,pth,9.60
2024-01-30T21:00:00,pth,16.80
2024-01-30T21:02:00,pth,8.40
2024-01-30T21:03:00,pth,8.40
2024-01-30T21:05:00,pth,9.59
2024-01-30T21:06:00,pth,8.40
2024-01-30T21:08:00,pth,7.20
2024-01-30T21:09:00,pth,7.20
2024-01-30T21:11:00,pth,16.80
2024-01-30T21:13:00,pth,15.60
2024-01-30T21:14:00,pth,8.40
2024-01-30T21:16:00,pth,15.60
2024-01-30T21:18:00,pth,16.80
2024-01-30T21:20:00,pth,14.40
2024-01-30T21:22:00,pth,15.60
2024-01-30T21:23:00,pth,8.40
2024-01-30T21:24:00,pth,7.20
2024-01-30T21:26:00,pth,15.59
2024-01-30T21:28:00,pth,15.60
2024-01-30T21:29:00,pth,7.20
2024-01-30T21:31:00,pth,15.60
2024-01-30T21:33:00,pth,15.60
2024-01-30T21:35:00,pth,16.80
2024-01-30T21:36:00,pth,8.40
2024-01-30T21:37:00,pth,8.40
2024-01-30T21:38:00,pth,7.20
2024-01-30T21:39:00,pth,7.20
2024-01-30T21:41:00,pth,16.80
2024-01-30T21:43:00,pth,12.00
2024-01-30T21:44:00,pth,4.80
2024-01-30T21:46:00,pth,15.60
2024-01-30T21:48:00,pth,8.40
2024-01-30T21:49:00,pth,7.20
2024-01-30T21:51:00,pth,7.20
2024-01-30T21:53:00,pth,15.60
2024-01-30T21:55:00,pth,8.40